Location: Newark
(23.1300°N, 73.6109°E)
Time: 05:22:48
(UTC+00:00)

NOAA 18 - Pass Details

Date: 17 June 2021
Orbit: 840 x 861 km, 99.0° (Epoch: 27 July)

Event Time Altitude Azimuth Distance (km) Brightness Sun altitude
Exits shadow 15:55:54 31° 66° (ENE) 1,465 6.2 -24.3°
Drops below altitude 10° 16:00:21 10° 12° (NNE) 2,488 8.0 -25.1°
Sets 16:02:59 0° 2° (N) 3,429 8.9 -25.5°
